FW0192 Weather Reports


Display with metric or nautical units.
time (UTC)temp
F
wind
direction
speed
MPH
gust
MPH
rain 1hr
in
rain 24hr
in
rain mn
in
humidity
%
barometer
mb
20180526172704 84 309 3.0 9.0 0.00 0.00 0.00 29 1013.9
20180526172204 84 255 4.0 9.0 0.00 0.00 0.00 29 1013.9
20180526171704 83 339 4.0 9.0 0.00 0.00 0.00 30 1014.1
20180526171204 83 314 3.0 7.0 0.00 0.00 0.00 30 1014.1
20180526170705 82 292 2.0 7.0 0.00 0.00 0.00 30 1014.2
20180526170204 82 0 3.0 8.0 0.00 0.00 0.00 29 1014.3
20180526165704 82 305 4.0 8.0 0.00 0.00 0.00 29 1014.3
20180526165204 82 0 4.0 8.0 0.00 0.00 0.00 30 1014.5
20180526164704 81 246 4.0 8.0 0.00 0.00 0.00 31 1014.5
20180526164204 80 310 4.0 8.0 0.00 0.00 0.00 32 1014.5
20180526163704 80 313 4.0 8.0 0.00 0.00 0.00 34 1014.6
20180526163204 79 289 4.0 9.0 0.00 0.00 0.00 34 1014.6
20180526162703 79 296 4.0 9.0 0.00 0.00 0.00 33 1014.6
20180526162204 78 293 5.0 9.0 0.00 0.00 0.00 35 1014.7
20180526161704 78 305 5.0 9.0 0.00 0.00 0.00 36 1014.8
20180526161204 78 284 4.0 9.0 0.00 0.00 0.00 35 1014.8
20180526160704 79 269 5.0 14.0 0.00 0.00 0.00 33 1014.8
20180526160204 77 255 5.0 14.0 0.00 0.00 0.00 34 1014.8
20180526155704 77 276 5.0 14.0 0.00 0.00 0.00 35 1014.9
20180526155204 77 242 5.0 10.0 0.00 0.00 0.00 34 1014.9
20180526154704 76 252 5.0 10.0 0.00 0.00 0.00 37 1015.0
20180526154204 76 248 6.0 9.0 0.00 0.00 0.00 35 1015.0
20180526153705 76 242 4.0 9.0 0.00 0.00 0.00 37 1015.0
20180526153204 76 289 4.0 8.0 0.00 0.00 0.00 35 1015.0
20180526152704 75 276 5.0 8.0 0.00 0.00 0.00 42 1015.0
20180526152204 74 252 5.0 8.0 0.00 0.00 0.00 40 1014.9
20180526151704 74 265 5.0 9.0 0.00 0.00 0.00 42 1015.0
20180526151204 73 277 5.0 9.0 0.00 0.00 0.00 43 1015.2
20180526150704 72 309 6.0 9.0 0.00 0.00 0.00 45 1015.2
20180526150204 72 271 6.0 10.0 0.00 0.00 0.00 46 1015.2
20180526145704 72 275 6.0 10.0 0.00 0.00 0.00 47 1015.2
20180526145204 71 271 6.0 9.0 0.00 0.00 0.00 47 1015.2
20180526144704 70 246 5.0 9.0 0.00 0.00 0.00 47 1015.3
20180526144204 70 261 5.0 8.0 0.00 0.00 0.00 47 1015.4
20180526143704 70 253 4.0 7.0 0.00 0.00 0.00 49 1015.4
20180526143204 69 243 4.0 8.0 0.00 0.00 0.00 51 1015.3
20180526142704 68 246 5.0 8.0 0.00 0.00 0.00 51 1015.3
20180526142204 67 307 5.0 9.0 0.00 0.00 0.00 52 1015.3
20180526141704 67 246 5.0 9.0 0.00 0.00 0.00 53 1015.3
20180526141204 66 257 6.0 10.0 0.00 0.00 0.00 54 1015.3
20180526140704 66 259 7.0 10.0 0.00 0.00 0.00 54 1015.4
20180526140204 66 243 6.0 8.0 0.00 0.00 0.00 55 1015.4
20180526135704 65 263 5.0 9.0 0.00 0.00 0.00 54 1015.5
20180526135204 65 279 6.0 9.0 0.00 0.00 0.00 54 1015.4
20180526134704 64 278 7.0 9.0 0.00 0.00 0.00 54 1015.3
20180526134207 64 250 7.0 9.0 0.00 0.00 0.00 55 1015.3
20180526133704 64 257 7.0 9.0 0.00 0.00 0.00 55 1015.2
20180526133204 63 292 7.0 9.0 0.00 0.00 0.00 56 1015.2
20180526132704 63 274 6.0 9.0 0.00 0.00 0.00 57 1015.0
20180526132204 62 271 6.0 9.0 0.00 0.00 0.00 58 1015.0
20180526131705 62 265 6.0 9.0 0.00 0.00 0.00 60 1015.0
20180526131205 62 269 6.0 9.0 0.00 0.00 0.00 62 1015.0
20180526130705 62 269 6.0 8.0 0.00 0.00 0.00 60 1014.9
20180526130204 62 248 6.0 7.0 0.00 0.00 0.00 59 1014.9
20180526125704 61 274 5.0 7.0 0.00 0.00 0.00 59 1014.9
20180526125204 61 260 4.0 7.0 0.00 0.00 0.00 60 1014.9
20180526124704 60 261 4.0 5.0 0.00 0.00 0.00 63 1014.8
20180526124204 60 238 3.0 5.0 0.00 0.00 0.00 65 1014.8
20180526123704 59 230 3.0 4.0 0.00 0.00 0.00 67 1014.8
20180526123204 58 245 2.0 4.0 0.00 0.00 0.00 68 1014.7
20180526122704 58 248 1.0 1.0 0.00 0.00 0.00 71 1014.7
20180526122204 56 250 0.0 3.0 0.00 0.00 0.00 70 1014.7
20180526121704 56 249 1.0 4.0 0.00 0.00 0.00 71 1014.7
20180526121204 56 249 2.0 4.0 0.00 0.00 0.00 71 1014.7
20180526120704 55 249 4.0 4.0 0.00 0.00 0.00 72 1014.6
20180526120207 54 250 3.0 5.0 0.00 0.00 0.00 73 1014.5
20180526115704 53 250 2.0 5.0 0.00 0.00 0.00 74 1014.6
20180526115204 53 250 3.0 5.0 0.00 0.00 0.00 71 1014.5
20180526114704 54 248 4.0 5.0 0.00 0.00 0.00 70 1014.5
20180526114204 54 248 4.0 7.0 0.00 0.00 0.00 69 1014.6
20180526113704 54 248 4.0 7.0 0.00 0.00 0.00 72 1014.6
20180526113204 54 254 5.0 7.0 0.00 0.00 0.00 71 1014.6
20180526112704 55 255 5.0 6.0 0.00 0.00 0.00 72 1014.6
20180526112204 56 242 5.0 6.0 0.00 0.00 0.00 70 1014.6
20180526111704 56 237 5.0 6.0 0.00 0.00 0.00 69 1014.6
20180526111204 56 234 5.0 5.0 0.00 0.00 0.00 68 1014.6
20180526110704 56 226 4.0 5.0 0.00 0.00 0.00 67 1014.5
20180526110204 55 223 3.0 4.0 0.00 0.00 0.00 71 1014.6
20180526105704 54 223 1.0 1.0 0.00 0.00 0.00 71 1014.5
20180526105204 55 223 0.0 1.0 0.00 0.00 0.00 70 1014.5
20180526104704 55 223 0.0 1.0 0.00 0.00 0.00 67 1014.5
20180526104204 55 223 0.0 2.0 0.00 0.00 0.00 63 1014.5
20180526103704 58 223 0.0 2.0 0.00 0.00 0.00 57 1014.3
20180526103204 58 223 1.0 3.0 0.00 0.00 0.00 60 1014.3
20180526102704 56 223 2.0 3.0 0.00 0.00 0.00 58 1014.5
20180526102204 60 223 2.0 3.0 0.00 0.00 0.00 52 1014.6
20180526101704 58 223 1.0 2.0 0.00 0.00 0.00 54 1014.5
20180526101204 60 223 0.0 1.0 0.00 0.00 0.00 52 1014.3
20180526100704 58 223 0.0 3.0 0.00 0.00 0.00 55 1014.3
20180526100204 60 223 1.0 3.0 0.00 0.00 0.00 51 1014.2
20180526095704 62 223 2.0 4.0 0.00 0.00 0.00 49 1014.2
20180526095204 60 223 3.0 4.0 0.00 0.00 0.00 53 1014.3
20180526094704 58 223 3.0 4.0 0.00 0.00 0.00 56 1014.3
20180526094204 58 223 3.0 4.0 0.00 0.00 0.00 57 1014.3
20180526093704 58 223 3.0 5.0 0.00 0.00 0.00 57 1014.3
20180526093204 59 223 3.0 5.0 0.00 0.00 0.00 57 1014.5
20180526092704 60 223 4.0 6.0 0.00 0.00 0.00 56 1014.3
20180526092204 59 229 4.0 6.0 0.00 0.00 0.00 57 1014.5
20180526091704 58 225 5.0 6.0 0.00 0.00 0.00 57 1014.5
20180526091204 59 225 5.0 5.0 0.00 0.00 0.00 56 1014.5
20180526090704 59 229 5.0 6.0 0.00 0.00 0.00 56 1014.3
20180526090204 59 232 5.0 7.0 0.00 0.00 0.00 56 1014.5
20180526085704 58 244 5.0 7.0 0.00 0.00 0.00 57 1014.5
20180526085203 58 254 5.0 7.0 0.00 0.00 0.00 58 1014.5
20180526084704 58 255 4.0 5.0 0.00 0.00 0.00 59 1014.6
20180526084204 58 254 4.0 5.0 0.00 0.00 0.00 57 1014.6
20180526083704 59 254 4.0 5.0 0.00 0.00 0.00 56 1014.6
20180526083204 60 254 4.0 5.0 0.00 0.00 0.00 56 1014.6
20180526082704 60 251 4.0 4.0 0.00 0.00 0.00 55 1014.6
20180526082204 61 245 3.0 4.0 0.00 0.00 0.00 54 1014.6
20180526081704 62 242 3.0 6.0 0.00 0.00 0.00 52 1014.6
20180526081204 62 228 3.0 7.0 0.00 0.00 0.00 51 1014.7
20180526080704 64 229 4.0 7.0 0.00 0.00 0.00 49 1014.8
20180526080205 65 241 5.0 7.0 0.00 0.00 0.00 47 1014.8
20180526075704 66 234 5.0 11.0 0.00 0.00 0.00 46 1014.8
20180526075204 68 207 6.0 11.0 0.00 0.00 0.00 44 1014.7
20180526074705 69 192 7.0 12.0 0.00 0.00 0.00 43 1014.7
20180526074203 69 176 8.0 12.0 0.00 0.00 0.00 42 1014.7
20180526073704 69 150 9.0 12.0 0.00 0.00 0.00 41 1014.7
20180526073204 70 153 9.0 12.0 0.00 0.00 0.00 40 1014.8
20180526072704 71 158 8.0 12.0 0.00 0.00 0.00 40 1014.7
20180526072204 70 165 7.0 11.0 0.00 0.00 0.00 40 1014.8
20180526071704 68 160 5.0 8.0 0.00 0.00 0.00 42 1014.8
20180526071204 68 194 5.0 10.0 0.00 0.00 0.00 42 1014.9
20180526070705 69 219 5.0 12.0 0.00 0.00 0.00 41 1015.0
20180526070204 69 197 6.0 12.0 0.00 0.00 0.00 40 1015.0
20180526065704 70 177 7.0 12.0 0.00 0.00 0.00 40 1015.2
20180526065204 69 165 8.0 12.0 0.00 0.00 0.00 41 1015.2
20180526064704 68 167 7.0 12.0 0.00 0.00 0.00 41 1015.2
20180526064204 68 163 6.0 11.0 0.00 0.00 0.00 41 1015.2
20180526063704 65 176 4.0 6.0 0.00 0.00 0.00 44 1015.3
20180526063204 65 209 4.0 6.0 0.00 0.00 0.00 44 1015.4
20180526062703 65 218 4.0 6.0 0.00 0.00 0.00 44 1015.4
20180526062204 64 187 4.0 8.0 0.00 0.00 0.00 43 1015.5
20180526061704 66 182 5.0 8.0 0.00 0.00 0.00 41 1015.5
20180526061205 67 153 5.0 9.0 0.00 0.00 0.00 40 1015.5
20180526060704 68 162 6.0 11.0 0.00 0.00 0.00 39 1015.6
20180526060204 70 166 7.0 13.0 0.00 0.00 0.00 36 1015.6
20180526055704 71 171 8.0 13.0 0.00 0.00 0.00 35 1015.6
20180526055204 71 172 7.0 13.0 0.00 0.00 0.00 35 1015.6
20180526054704 71 162 7.0 11.0 0.00 0.00 0.00 35 1015.6
20180526054204 70 184 7.0 11.0 0.00 0.00 0.00 36 1015.6
20180526053704 68 185 6.0 11.0 0.00 0.00 0.00 37 1015.6
20180526053204 67 180 7.0 12.0 0.00 0.00 0.00 39 1015.7
20180526052704 68 160 8.0 14.0 0.00 0.00 0.00 39 1015.7
20180526052204 69 151 8.0 14.0 0.00 0.00 0.00 37 1015.9
20180526051704 68 161 7.0 14.0 0.00 0.00 0.00 38 1015.9
20180526051204 67 192 6.0 10.0 0.00 0.00 0.00 41 1015.7
20180526050704 67 175 6.0 10.0 0.00 0.00 0.00 42 1015.9
20180526050204 66 211 5.0 7.0 0.00 0.00 0.00 43 1016.1
20180526045704 66 145 4.0 5.0 0.00 0.00 0.00 44 1015.9
20180526045205 66 146 4.0 8.0 0.00 0.00 0.00 44 1015.7
20180526044703 67 131 4.0 8.0 0.00 0.00 0.00 43 1015.9
20180526044204 67 132 4.0 8.0 0.00 0.00 0.00 43 1015.9
20180526043704 67 120 4.0 8.0 0.00 0.00 0.00 43 1015.9
20180526043204 67 126 4.0 6.0 0.00 0.00 0.00 43 1016.0
20180526042704 67 111 4.0 6.0 0.00 0.00 0.00 43 1016.0
20180526042204 67 123 4.0 6.0 0.00 0.00 0.00 42 1016.0
20180526041704 68 112 4.0 6.0 0.00 0.00 0.00 41 1016.0
20180526041204 68 106 4.0 6.0 0.00 0.00 0.00 41 1016.0
20180526040704 68 103 4.0 6.0 0.00 0.00 0.00 40 1016.0
20180526040205 68 107 4.0 6.0 0.00 0.00 0.00 40 1016.0
20180526035705 68 103 4.0 6.0 0.00 0.00 0.00 40 1016.1
20180526035204 69 99 3.0 6.0 0.00 0.00 0.00 39 1016.0
20180526034704 69 109 3.0 6.0 0.00 0.00 0.00 39 1015.9
20180526034204 69 114 3.0 6.0 0.00 0.00 0.00 38 1016.0
20180526033704 69 106 3.0 6.0 0.00 0.00 0.00 38 1015.9
20180526033204 69 117 3.0 6.0 0.00 0.00 0.00 37 1015.9
20180526032704 70 109 3.0 6.0 0.00 0.00 0.00 36 1015.7
20180526032204 70 113 3.0 8.0 0.00 0.00 0.00 35 1015.6
20180526031704 71 115 5.0 8.0 0.00 0.00 0.00 34 1015.6
20180526031204 72 107 5.0 7.0 0.00 0.00 0.00 33 1015.6
20180526030704 72 102 5.0 7.0 0.00 0.00 0.00 33 1015.6
20180526030204 72 107 5.0 7.0 0.00 0.00 0.00 32 1015.6
20180526025704 73 107 5.0 9.0 0.00 0.00 0.00 32 1015.6
20180526025204 73 102 6.0 9.0 0.00 0.00 0.00 31 1015.5
20180526024704 73 101 6.0 7.0 0.00 0.00 0.00 31 1015.5
20180526024204 73 103 5.0 7.0 0.00 0.00 0.00 31 1015.5
20180526023704 72 96 5.0 7.0 0.00 0.00 0.00 31 1015.5
20180526023203 72 94 5.0 7.0 0.00 0.00 0.00 31 1015.5
20180526022704 72 89 4.0 6.0 0.00 0.00 0.00 31 1015.5
20180526022204 73 85 4.0 6.0 0.00 0.00 0.00 31 1015.5
20180526021703 73 89 4.0 7.0 0.00 0.00 0.00 29 1015.5
20180526021204 74 90 5.0 7.0 0.00 0.00 0.00 28 1015.5
20180526020704 76 85 5.0 7.0 0.00 0.00 0.00 27 1015.4
20180526020204 77 82 5.0 8.0 0.00 0.00 0.00 26 1015.3
20180526015704 77 87 5.0 8.0 0.00 0.00 0.00 26 1015.3
20180526015204 78 83 5.0 8.0 0.00 0.00 0.00 25 1015.3
20180526014704 78 86 5.0 9.0 0.00 0.00 0.00 24 1015.2
20180526014204 80 85 5.0 10.0 0.00 0.00 0.00 23 1015.2
20180526013704 81 79 6.0 11.0 0.00 0.00 0.00 22 1015.2
20180526013204 82 76 7.0 11.0 0.00 0.00 0.00 21 1015.2
20180526012704 83 85 8.0 13.0 0.00 0.00 0.00 20 1015.2
20180526012205 83 82 8.0 14.0 0.00 0.00 0.00 19 1015.2
20180526011704 84 80 9.0 14.0 0.00 0.00 0.00 18 1015.0
20180526011204 85 84 9.0 14.0 0.00 0.00 0.00 18 1015.0
20180526010704 85 89 9.0 15.0 0.00 0.00 0.00 18 1015.0
20180526010204 85 76 10.0 15.0 0.00 0.00 0.00 17 1015.0
20180526005704 86 67 10.0 15.0 0.00 0.00 0.00 16 1015.0
20180526005205 86 90 11.0 14.0 0.00 0.00 0.00 16 1015.0
20180526004705 87 98 10.0 12.0 0.00 0.00 0.00 16 1015.0
20180526004204 87 87 9.0 15.0 0.00 0.00 0.00 16 1015.0
20180526003704 87 74 11.0 16.0 0.00 0.00 0.00 16 1015.0
20180526003204 87 75 12.0 16.0 0.00 0.00 0.00 16 1015.0
20180526002704 87 74 11.0 15.0 0.00 0.00 0.00 16 1015.2
20180526002204 88 92 9.0 15.0 0.00 0.00 0.00 16 1015.0
20180526001704 88 91 10.0 15.0 0.00 0.00 0.00 16 1015.2
20180526001205 88 79 10.0 14.0 0.00 0.00 0.00 16 1015.2
20180526000704 88 90 8.0 12.0 0.00 0.00 0.00 16 1015.2
20180526000204 88 88 9.0 12.0 0.00 0.00 0.00 16 1015.2
20180525235704 88 92 8.0 14.0 0.00 0.00 0.00 16 1015.2
20180525235204 88 91 8.0 14.0 0.00 0.00 0.00 16 1015.3
20180525234704 88 71 10.0 17.0 0.00 0.00 0.00 16 1015.4
20180525234204 89 114 12.0 17.0 0.00 0.00 0.00 16 1015.5
20180525233704 89 77 8.0 17.0 0.00 0.00 0.00 16 1015.3
20180525233204 89 101 5.0 10.0 0.00 0.00 0.00 16 1015.4
20180525232704 88 97 4.0 13.0 0.00 0.00 0.00 15 1015.3
20180525232204 88 61 5.0 13.0 0.00 0.00 0.00 16 1015.4
20180525231704 89 130 7.0 13.0 0.00 0.00 0.00 15 1015.5
20180525231204 89 96 6.0 11.0 0.00 0.00 0.00 15 1015.4
20180525230704 89 90 6.0 11.0 0.00 0.00 0.00 15 1015.5
20180525230204 89 126 6.0 15.0 0.00 0.00 0.00 15 1015.5
20180525225704 90 106 8.0 15.0 0.00 0.00 0.00 15 1015.5
20180525225204 89 103 8.0 15.0 0.00 0.00 0.00 15 1015.6
20180525224704 89 96 8.0 13.0 0.00 0.00 0.00 15 1015.5
20180525224204 89 76 8.0 12.0 0.00 0.00 0.00 15 1015.6
20180525223704 89 107 8.0 12.0 0.00 0.00 0.00 15 1015.6
20180525223204 90 38 8.0 12.0 0.00 0.00 0.00 15 1015.7
20180525222704 90 92 7.0 11.0 0.00 0.00 0.00 15 1015.9
20180525222204 89 115 5.0 10.0 0.00 0.00 0.00 16 1016.0
20180525221704 89 44 2.0 11.0 0.00 0.00 0.00 15 1015.9
20180525221205 88 22 4.0 15.0 0.00 0.00 0.00 15 1016.0
20180525220704 89 59 6.0 16.0 0.00 0.00 0.00 15 1016.1
20180525220204 88 153 8.0 16.0 0.00 0.00 0.00 15 1016.2
20180525215704 89 119 9.0 16.0 0.00 0.00 0.00 15 1016.2
20180525215204 89 57 9.0 15.0 0.00 0.00 0.00 15 1016.2
20180525214704 89 53 9.0 15.0 0.00 0.00 0.00 15 1016.2
20180525214204 89 11 9.0 15.0 0.00 0.00 0.00 15 1016.3
20180525213704 90 69 8.0 14.0 0.00 0.00 0.00 15 1016.3
20180525213205 89 80 5.0 12.0 0.00 0.00 0.00 15 1016.3
20180525212704 89 312 3.0 15.0 0.00 0.00 0.00 15 1016.4
20180525212204 87 90 5.0 15.0 0.00 0.00 0.00 14 1016.6
20180525211704 88 113 7.0 15.0 0.00 0.00 0.00 15 1016.6
20180525211204 89 151 7.0 15.0 0.00 0.00 0.00 15 1016.7
20180525210704 90 132 6.0 13.0 0.00 0.00 0.00 15 1016.7
20180525210203 89 67 6.0 15.0 0.00 0.00 0.00 16 1016.7
20180525205704 90 107 8.0 16.0 0.00 0.00 0.00 14 1016.8
20180525205204 90 84 9.0 16.0 0.00 0.00 0.00 14 1016.8
20180525204704 90 96 8.0 13.0 0.00 0.00 0.00 14 1016.8
20180525204204 89 40 7.0 12.0 0.00 0.00 0.00 15 1017.0
20180525203704 89 159 7.0 12.0 0.00 0.00 0.00 14 1017.0
20180525203204 89 200 5.0 10.0 0.00 0.00 0.00 15 1017.1
20180525202704 89 265 5.0 14.0 0.00 0.00 0.00 15 1017.1
20180525202205 88 163 6.0 14.0 0.00 0.00 0.00 15 1017.3
20180525201704 89 186 4.0 8.0 0.00 0.00 0.00 15 1017.3
20180525201203 89 11 3.0 11.0 0.00 0.00 0.00 15 1017.3
20180525200704 88 163 5.0 11.0 0.00 0.00 0.00 14 1017.4
20180525200204 88 134 6.0 11.0 0.00 0.00 0.00 15 1017.5
20180525195704 88 130 7.0 14.0 0.00 0.00 0.00 16 1017.5
20180525195204 88 154 8.0 14.0 0.00 0.00 0.00 16 1017.5
20180525194704 89 211 8.0 14.0 0.00 0.00 0.00 16 1017.6
20180525194204 87 162 7.0 13.0 0.00 0.00 0.00 16 1017.7
20180525193704 87 167 6.0 13.0 0.00 0.00 0.00 16 1017.6
20180525193204 88 103 5.0 9.0 0.00 0.00 0.00 17 1017.6
20180525192704 88 75 5.0 9.0 0.00 0.00 0.00 16 1017.6
20180525192203 88 27 3.0 9.0 0.00 0.00 0.00 17 1017.6
20180525191704 87 327 2.0 12.0 0.00 0.00 0.00 18 1017.7
20180525191204 86 153 4.0 13.0 0.00 0.00 0.00 17 1017.8
20180525190704 86 68 7.0 13.0 0.00 0.00 0.00 18 1018.0
20180525190204 87 55 6.0 13.0 0.00 0.00 0.00 17 1018.1
20180525185704 87 31 4.0 10.0 0.00 0.00 0.00 17 1018.1
20180525185204 87 127 4.0 12.0 0.00 0.00 0.00 17 1018.1
20180525184705 87 277 5.0 14.0 0.00 0.00 0.00 18 1018.1
20180525184204 86 203 6.0 14.0 0.00 0.00 0.00 19 1018.2
20180525183704 85 149 6.0 14.0 0.00 0.00 0.00 20 1018.3
20180525183204 85 105 6.0 10.0 0.00 0.00 0.00 19 1018.3
20180525182704 85 132 5.0 11.0 0.00 0.00 0.00 19 1018.3
20180525182204 85 162 6.0 11.0 0.00 0.00 0.00 18 1018.4
20180525181704 85 84 5.0 11.0 0.00 0.00 0.00 18 1018.5
20180525181204 85 121 5.0 12.0 0.00 0.00 0.00 17 1018.5
20180525180704 85 97 4.0 12.0 0.00 0.00 0.00 21 1018.7
20180525180204 85 40 4.0 9.0 0.00 0.00 0.00 20 1018.8
20180525175704 84 15 4.0 9.0 0.00 0.00 0.00 22 1018.9
20180525175204 85 87 4.0 8.0 0.00 0.00 0.00 24 1018.9
20180525174704 84 65 5.0 8.0 0.00 0.00 0.00 23 1018.9
20180525174204 84 67 3.0 7.0 0.00 0.00 0.00 24 1019.0
20180525173703 83 55 3.0 7.0 0.00 0.00 0.00 27 1019.1
20180525173203 83 56 3.0 7.0 0.00 0.00 0.00 26 1019.1